Regional Weather Roundup
Issued by NWS

Home | Current Version | Previous Version | Text Only | Print | Product List | Glossary Off
Versions: 1 2 3 4 5 6 7 8 9 10 11 12 13 14 15 16 17 18 19 20 21 22 23 24 25 26 27 28 29 30 31 32 33 34 35 36 37 38 39 40 41 42 43 44 45 46 47 48 49 50

184
ASUS43 KDTX 250101
RWRMI
MICHIGAN HOURLY REGIONAL WEATHER ROUNDUP
NATIONAL WEATHER SERVICE DETROIT/PONTIAC MI
900 PM EDT SUN SEP 24 2017

NOTE: "FAIR" INDICATES FEW OR NO CLOUDS BELOW 12,000 FEET WITH NO
SIGNIFICANT WEATHER AND/OR OBSTRUCTION TO VISIBILITY.

MIZ047>049-052>055-059>063-066>070-074>076-081>083-250200-
SOUTHEAST LOWER MICHIGAN

CITY           SKY/WX    TMP DP  RH WIND       PRES   REMARKS
ADRIAN         CLEAR     75  63  66 SE6       30.09S
ALMA           CLEAR     78  55  44 CALM      30.07R
ANN ARBOR      CLEAR     67  62  84 CALM      30.09R
BAD AXE        CLEAR     71  64  78 CALM      30.10S
CARO           CLEAR     73  62  70 CALM      30.09R
DETROIT CITY   CLEAR     77  65  66 S3        30.09R
DETROIT        CLEAR     79  66  64 S3        30.09S
FLINT          CLEAR     76  63  64 SE8       30.09R
GROSSE ILE     CLEAR     74  66  76 CALM      30.08R
HILLSDALE      MOCLDY    72  59  64 SE5       30.10R
HOWELL         CLEAR     74  60  60 SE3       30.10R

CITY           SKY/WX    TMP DP  RH WIND       PRES   REMARKS
JACKSON        CLEAR     80  57  45 E6        30.09R
LAMBERTVILLE   CLEAR     73  67  81 CALM      30.08S
LANSING        CLEAR     80  57  45 SE6       30.08R
LAPEER         FAIR      70  62  77 CALM      30.10S
MASON          CLEAR     77  59  53 SE5       30.09R
MONROE         CLEAR     73  66  79 CALM      30.08S
MT. CLEMENS    CLEAR     72  69  91 CALM      30.07S
PONTIAC        CLEAR     79  65  62 SE3       30.09S
PORT HOPE        N/A     75  65  70 S3        30.07S
PORT HURON     CLEAR     70  66  88 CALM      30.10S
TRI CITIES     CLEAR     78  61  55 SE8       30.08R
MIDLAND        FAIR      73  60  65 CALM      30.06R
TROY           CLEAR     79  63  57 CALM      30.11S
SAGINAW HB     CLEAR     77  61  57 SE6       30.07R
$$
MIZ043>046-050>051-056>058-064>065-071>073-077>080-250200-
SOUTHWEST LOWER MICHIGAN

CITY           SKY/WX    TMP DP  RH WIND       PRES   REMARKS
BATTLE CREEK   CLEAR     76  60  57 CALM      30.08S
BENTON HARBOR  CLEAR     72  61  68 E3        30.04R
BIG RAPIDS     CLEAR     72  63  73 CALM      30.06S
COLDWATER      CLEAR     71  60  67 CALM      30.07S
FREMONT        FAIR      72  61  68 CALM      30.05R
HOLLAND        CLEAR     70  59  68 CALM      30.05R
GRAND RAPIDS   CLEAR     77  58  51 S6        30.06R
IONIA          FAIR      74  56  53 SE6       30.06R
KALAMAZOO      CLEAR     76  57  51 CALM      30.06S
LUDINGTON      CLEAR     66  62  89 CALM      30.03S
MARSHALL       CLEAR     71  60  67 CALM      30.07S
MOUNT PLEASANT CLEAR     75  59  57 CALM      30.06R
MUSKEGON       CLEAR     73  59  61 CALM      30.04S
SOUTH HAVEN    CLEAR     72  63  73 CALM      30.05R
$$
MIZ016>042-250200-
NORTHERN LOWER MICHIGAN

CITY           SKY/WX    TMP DP  RH WIND       PRES   REMARKS
ALPENA         CLEAR     72  64  76 S7        30.07R
BEAVER ISLAND  CLEAR     68  66  94 CALM      30.04
BELLAIRE       CLEAR     71  67  89 CALM      30.04R
CADILLAC       CLEAR     73  58  59 CALM      30.08R
CHARLEVOIX     CLEAR     72  63  74 W3        30.07S
FRANKFORT      CLEAR     70  65  82 CALM      30.04R
GAYLORD        CLEAR     76  59  55 S5        30.08R
GRAYLING       CLEAR     71  60  68 CALM      30.08S
HARBOR SPRINGS CLEAR     72  69  89 CALM      30.04S
HOUGHTON LAKE  CLEAR     76  61  59 SE6       30.08S
MANISTEE       CLEAR     69  64  84 E3        30.03S
OSCODA         CLEAR     74  65  75 SW5       30.07S
PELLSTON       CLEAR     70  65  84 CALM      30.05R
ROGERS CITY    CLEAR     79  63  58 S7        30.05S
TRAVERSE CITY  CLEAR     75  67  76 CALM      30.03R
$$
MIZ007>008-015-250200-
EASTERN UPPER MICHIGAN

CITY           SKY/WX    TMP DP  RH WIND       PRES   REMARKS
KINROSS        CLEAR     74  67  78 SE3       30.04F
MACKINAC ISLAN CLEAR     72  64  77 CALM      30.03S
NEWBERRY       CLEAR     71  66  84 S7        30.02S
S. S. MARIE    CLEAR     76  68  76 SE6       30.03S
MUNISING         N/A     75  66  73 S6        29.97S
$$
MIZ004>006-011>014-085-250200-
CENTRAL UPPER MICHIGAN

CITY           SKY/WX    TMP DP  RH WIND       PRES   REMARKS
MANISTIQUE     CLEAR     66  60  81 SE5       30.01S
ESCANABA       CLEAR     73  66  78 S7        29.99S
MENOMINEE      CLEAR     74  65  73 S5        30.00S
SAWYER-GWINN   CLEAR     75  66  73 S9        29.99S
$$
MIZ001>003-009>011-084-250200-
WESTERN UPPER MICHIGAN

CITY           SKY/WX    TMP DP  RH WIND       PRES   REMARKS
IRON MOUNTAIN  CLEAR     75  63  66 S7        29.97F
HOUGHTON       CLEAR     78  62  57 S5        29.91S
COPPER HARBOR    N/A     73  62  68 SW6       29.89S
IRONWOOD       CLEAR     76  60  57 S7        29.92R
$$

ABBREVIATIONS USED IN REMARKS
   TC - TEMPERATURE IN CELSIUS
  WCI - WIND CHILL INDEX
   HX - HEAT INDEX
  VSB - VISIBILITY





USA.gov is the U.S. government's official web portal to all federal, state and local government web resources and services.